FW6531 Weather Reports


Display with metric or nautical units.
time (UTC)temp
F
wind
direction
speed
MPH
gust
MPH
rain 1hr
in
rain 24hr
in
rain mn
in
humidity
%
barometer
mb
20260504211554 63 101 1.0 6.0 0.00 0.00 0.00 50 1004.3
20260504211054 63 111 0.0 4.0 0.00 0.00 0.00 48 1004.2
20260504210554 63 103 1.0 5.0 0.00 0.00 0.00 48 1004.3
20260504210108 63 134 2.0 8.0 0.00 0.00 0.00 49 1004.3
20260504205553 64 107 5.0 10.0 0.00 0.00 0.00 47 1004.4
20260504205052 65 121 3.0 10.0 0.00 0.00 0.00 46 1004.4
20260504204601 66 113 7.0 10.0 0.00 0.00 0.00 44 1004.3
20260504204053 67 111 5.0 10.0 0.00 0.00 0.00 43 1004.3
20260504203553 68 91 2.0 13.0 0.00 0.00 0.00 38 1004.2
20260504203051 68 313 4.0 13.0 0.00 0.00 0.00 39 1004.2
20260504202552 68 271 4.0 12.0 0.00 0.00 0.00 38 1004.2
20260504202053 68 267 5.0 12.0 0.00 0.00 0.00 38 1004.2
20260504201552 67 272 6.0 13.0 0.00 0.00 0.00 38 1004.2
20260504201050 67 315 4.0 13.0 0.00 0.00 0.00 37 1004.2
20260504200549 67 244 4.0 12.0 0.00 0.00 0.00 38 1004.4
20260504200050 68 252 4.0 11.0 0.00 0.00 0.00 38 1004.4
20260504195548 68 263 5.0 13.0 0.00 0.00 0.00 38 1004.2
20260504195047 68 273 5.0 14.0 0.00 0.00 0.00 39 1004.3
20260504194602 67 258 3.0 9.0 0.00 0.00 0.00 40 1004.2
20260504194045 67 332 3.0 6.0 0.00 0.00 0.00 39 1004.3
20260504193544 66 272 2.0 6.0 0.00 0.00 0.00 41 1004.3
20260504193042 66 316 3.0 6.0 0.00 0.00 0.00 40 1004.3
20260504192541 66 290 1.0 9.0 0.00 0.00 0.00 42 1004.4
20260504192041 65 294 5.0 9.0 0.00 0.00 0.00 43 1004.5
20260504191546 65 259 2.0 6.0 0.00 0.00 0.00 41 1004.6
20260504191039 64 314 2.0 6.0 0.00 0.00 0.00 42 1004.7
20260504190538 64 331 2.0 9.0 0.00 0.00 0.00 44 1004.7
20260504190045 64 321 2.0 9.0 0.00 0.00 0.00 42 1004.8
20260504185536 63 267 3.0 9.0 0.00 0.00 0.00 42 1004.8
20260504185036 63 342 1.0 7.0 0.00 0.00 0.00 43 1004.8
20260504184540 63 264 3.0 7.0 0.00 0.00 0.00 41 1004.9
20260504184036 64 338 3.0 10.0 0.00 0.00 0.00 41 1004.8
20260504183535 64 288 3.0 10.0 0.00 0.00 0.00 42 1004.8
20260504183035 64 306 2.0 10.0 0.00 0.00 0.00 40 1004.7
20260504182534 64 294 3.0 10.0 0.00 0.00 0.00 41 1004.7
20260504182035 64 263 3.0 9.0 0.00 0.00 0.00 40 1004.7
20260504181542 64 267 4.0 8.0 0.00 0.00 0.00 40 1004.8
20260504181033 63 278 3.0 14.0 0.00 0.00 0.00 40 1004.7
20260504180531 63 22 5.0 13.0 0.00 0.00 0.00 40 1004.7
20260504180045 62 260 4.0 13.0 0.00 0.00 0.00 44 1004.7
20260504175529 61 271 3.0 10.0 0.00 0.00 0.00 45 1004.6
20260504175031 60 270 2.0 10.0 0.00 0.00 0.00 52 1004.6
20260504174529 60 246 3.0 8.0 0.00 0.00 0.00 53 1004.5
20260504174028 60 265 2.0 4.0 0.00 0.00 0.00 51 1004.7
20260504173527 60 169 2.0 7.0 0.00 0.00 0.00 55 1004.6
20260504173028 61 209 1.0 12.0 0.00 0.00 0.00 55 1004.6
20260504172526 61 185 4.0 14.0 0.00 0.00 0.00 53 1004.5
20260504172027 61 180 4.0 11.0 0.00 0.00 0.00 56 1004.6
20260504171528 61 134 3.0 10.0 0.00 0.00 0.00 53 1004.5
20260504171027 61 189 4.0 14.0 0.00 0.00 0.00 55 1004.5
20260504170526 60 154 5.0 14.0 0.00 0.00 0.00 52 1004.4
20260504151009 62 167 3.0 11.0 0.00 0.00 0.00 52 1005.7
20260504150508 61 174 4.0 10.0 0.00 0.00 0.00 53 1005.7
20260504141054 56 236 5.0 13.0 0.00 0.00 0.00 56 1006.8
20260504140553 55 213 5.0 13.0 0.00 0.00 0.00 56 1006.8
20260504130545 52 243 5.0 12.0 0.00 0.00 0.00 59 1007.4
20260504110525 44 245 0.0 4.0 0.00 0.00 0.00 67 1007.8
20260504100508 43 252 2.0 4.0 0.00 0.00 0.00 65 1007.6
20260504081549 42 269 3.0 6.0 0.00 0.00 0.00 67 1007.5
20260504081048 42 250 3.0 6.0 0.00 0.00 0.00 67 1007.5
20260504080546 42 229 2.0 5.0 0.00 0.00 0.00 67 1007.6
20260504050525 40 263 2.0 8.0 0.00 0.00 0.00 70 1007.1
20260504050024 40 278 1.0 5.0 0.00 0.00 0.00 71 1007.1
20260504045522 41 206 1.0 5.0 0.00 0.00 0.00 71 1007.0
20260504045021 41 193 2.0 4.0 0.00 0.00 0.00 70 1007.2
20260504044519 41 219 2.0 5.0 0.00 0.00 0.00 70 1007.1
20260504044020 41 215 2.0 6.0 0.00 0.00 0.00 70 1007.1
20260504043519 41 204 3.0 6.0 0.00 0.00 0.00 71 1007.1
20260504043016 40 196 3.0 6.0 0.00 0.00 0.00 71 1007.1
20260504042514 40 239 3.0 6.0 0.00 0.00 0.00 72 1007.1
20260504042013 40 242 2.0 5.0 0.00 0.00 0.00 73 1007.0
20260504041513 39 214 2.0 5.0 0.00 0.00 0.00 73 1007.1
20260504041012 39 215 2.0 4.0 0.00 0.00 0.00 73 1007.2
20260504040511 40 213 2.0 6.0 0.00 0.00 0.00 72 1007.2
20260504040010 40 204 2.0 6.0 0.00 0.00 0.00 71 1007.1
20260504035510 40 252 2.0 4.0 0.00 0.00 0.00 70 1007.0
20260504035008 41 253 1.0 3.0 0.00 0.00 0.00 70 1007.0
20260504034508 41 253 2.0 4.0 0.00 0.00 0.00 69 1007.0
20260504034006 41 254 1.0 4.0 0.00 0.00 0.00 69 1007.0
20260504033507 42 254 2.0 4.0 0.00 0.00 0.00 68 1007.0
20260504033004 42 254 2.0 3.0 0.00 0.00 0.00 67 1006.9
20260504032506 42 255 2.0 4.0 0.00 0.00 0.00 67 1006.9
20260504032004 42 256 2.0 4.0 0.00 0.00 0.00 66 1006.9
20260504031503 43 216 2.0 5.0 0.00 0.00 0.00 65 1006.9
20260504031002 43 211 2.0 5.0 0.00 0.00 0.00 65 1007.0
20260504030502 43 207 1.0 6.0 0.00 0.00 0.00 64 1007.0
20260504030003 44 202 2.0 6.0 0.00 0.00 0.00 63 1006.9
20260504025502 44 264 2.0 7.0 0.00 0.00 0.00 62 1006.9
20260504025002 44 267 2.0 6.0 0.00 0.00 0.00 60 1006.9
20260504024502 45 267 1.0 6.0 0.00 0.00 0.00 60 1006.9
20260504024001 45 267 2.0 6.0 0.00 0.00 0.00 59 1006.9
20260504023501 45 265 2.0 6.0 0.00 0.00 0.00 59 1006.9
20260504023001 45 267 2.0 6.0 0.00 0.00 0.00 59 1007.0
20260504022601 45 269 1.0 6.0 0.00 0.00 0.00 59 1007.0
20260504022000 45 279 2.0 8.0 0.00 0.00 0.00 58 1007.0
20260504021612 45 290 2.0 8.0 0.00 0.00 0.00 58 1007.1
20260504021103 45 263 3.0 8.0 0.00 0.00 0.00 58 1007.0
20260504020601 45 265 4.0 8.0 0.00 0.00 0.00 58 1007.0
20260504020107 45 264 3.0 8.0 0.00 0.01 0.00 58 1006.9
20260504015600 45 265 2.0 7.0 0.00 0.01 0.00 58 1006.8
20260504015100 45 265 3.0 7.0 0.00 0.01 0.00 58 1006.9
20260504014600 45 235 3.0 8.0 0.00 0.01 0.00 57 1006.9
20260504014059 46 264 3.0 7.0 0.00 0.01 0.00 56 1006.9
20260504013559 46 275 2.0 7.0 0.00 0.01 0.00 55 1006.9
20260504013110 46 269 3.0 7.0 0.00 0.01 0.00 55 1006.8
20260504012559 46 259 2.0 7.0 0.00 0.01 0.00 55 1006.8
20260504012058 46 274 2.0 7.0 0.00 0.01 0.00 54 1006.7
20260504011600 46 291 2.0 7.0 0.00 0.01 0.00 53 1006.6
20260504011057 46 271 3.0 7.0 0.00 0.01 0.00 53 1006.5
20260504010558 47 267 3.0 8.0 0.00 0.01 0.00 53 1006.4
20260504010120 47 277 3.0 8.0 0.00 0.01 0.00 52 1006.3
20260504005557 47 328 3.0 9.0 0.00 0.01 0.00 52 1006.3
20260504005056 47 263 2.0 9.0 0.00 0.01 0.00 51 1006.2
20260504004558 47 265 3.0 9.0 0.00 0.01 0.00 51 1006.1
20260504004056 47 263 3.0 9.0 0.00 0.01 0.00 51 1006.1
20260504003556 47 272 3.0 8.0 0.00 0.01 0.00 50 1006.1
20260504003056 47 297 4.0 8.0 0.00 0.01 0.00 50 1005.9
20260504002557 47 270 3.0 10.0 0.00 0.01 0.00 50 1005.8
20260504002055 48 313 5.0 11.0 0.00 0.01 0.00 49 1005.7
20260504001610 48 317 6.0 14.0 0.00 0.01 0.00 49 1005.6
20260504001056 48 324 5.0 14.0 0.00 0.01 0.00 48 1005.5
20260504000553 48 325 6.0 13.0 0.00 0.01 0.00 48 1005.4
20260504000058 48 319 5.0 11.0 0.00 0.01 0.00 48 1005.3
20260503235553 48 306 3.0 11.0 0.00 0.01 0.00 48 1005.2
20260503235052 49 306 3.0 11.0 0.00 0.01 0.00 46 1005.1
20260503234552 49 309 6.0 16.0 0.00 0.01 0.00 46 1005.1
20260503234051 49 304 6.0 17.0 0.00 0.01 0.00 45 1004.9
20260503233555 49 317 9.0 20.0 0.00 0.01 0.00 44 1004.8
20260503233052 49 351 7.0 20.0 0.00 0.01 0.00 44 1004.8
20260503232553 49 321 9.0 19.0 0.00 0.01 0.00 44 1004.7
20260503232051 49 325 7.0 21.0 0.00 0.01 0.00 44 1004.7
20260503231553 50 26 10.0 21.0 0.00 0.01 0.00 43 1004.5
20260503231050 50 334 14.0 30.0 0.00 0.01 0.00 43 1004.4
20260503230553 50 337 18.0 30.0 0.00 0.01 0.00 42 1004.3
20260503230050 50 331 10.0 26.0 0.00 0.01 0.00 43 1004.1
20260503225549 50 313 15.0 26.0 0.00 0.01 0.00 42 1004.0
20260503225052 51 313 14.0 24.0 0.00 0.01 0.00 42 1004.0
20260503224551 51 312 12.0 24.0 0.00 0.01 0.00 42 1003.8
20260503224047 51 300 11.0 25.0 0.00 0.01 0.00 43 1003.8
20260503223548 51 315 11.0 25.0 0.00 0.01 0.00 43 1003.7
20260503223047 51 327 8.0 24.0 0.00 0.01 0.00 44 1003.6
20260503222546 51 310 10.0 22.0 0.00 0.01 0.00 44 1003.5
20260503222046 51 321 9.0 22.0 0.00 0.01 0.00 45 1003.4
20260503221545 51 312 10.0 23.0 0.00 0.01 0.00 43 1003.2
20260503221047 51 325 9.0 23.0 0.00 0.01 0.00 45 1003.1
20260503220546 52 280 6.0 23.0 0.00 0.01 0.00 45 1003.0
20260503220046 52 306 8.0 23.0 0.00 0.01 0.00 45 1003.1
20260503215545 52 290 9.0 21.0 0.00 0.01 0.00 45 1003.0
20260503215044 52 308 12.0 21.0 0.00 0.01 0.00 45 1002.8
20260503214551 52 284 7.0 20.0 0.00 0.01 0.00 46 1002.9
20260503214046 52 274 10.0 20.0 0.00 0.01 0.00 46 1002.8
20260503213543 52 5 6.0 18.0 0.00 0.01 0.00 47 1002.8
20260503213106 52 331 9.0 18.0 0.00 0.01 0.00 46 1002.9
20260503212542 52 308 8.0 14.0 0.00 0.01 0.00 47 1002.8
20260503212045 52 305 6.0 17.0 0.00 0.01 0.00 47 1002.8